Weather in Odino

Russia / Tyumen Oblast     56°07′24″N   66°00′52″E
temp.,
°C
wind,
m/s
gust,
m/s
humid.,
%
clouds,
%
prec.,
mm/h
press.,
hPa
HPBL,
m
20 june, sun
sun2023:00+13wsw3697100 0.8 1011222
02:00+13sw4897100 0.1 1008306
05:00+13wsw599796 0.2 1006348
08:00+15wsw61195100 0.7 1004671
11:00+18nw8137417 1.1 10031414
14:00+20nw1016312 0.0 10042498
17:00+19nw9153930 0.0 10062684
20:00+15nnw11194384 0.0 10082092
21 june, mon
mon2123:00+11nnw101665100 0.0 10091557
02:00+10nnw101678100 0.4 10091450
05:00+10nnw91674100 0.8 10111186
08:00+10nnw91568100 0.1 10141073
11:00+12nnw91270100 0.1 1016992
14:00+17n785854 0.1 10181483
17:00+17nw785696 0.1 10181113
20:00+16nnw486199 0.0 1019528
22 june, tue
tue2223:00+13nw3871100 0.1 1019194
02:00+12nnw2373100 0.0 101851
05:00+11nnw2379100 0.1 101993
08:00+11nw2385100 0.2 1018156
11:00+14wnw226839 0.3 1018383
14:00+18nw244999 0.0 10171711
17:00+17nne2358100 0.0 1017378
20:00+15e1167100 0.0 101721
23 june, wed
wed2323:00+13nne1170100 0.0 101712
02:00+11n3378100 0.0 101756
05:00+9ne3486100 0.0 101884
08:00+14ne46640 0.0 1018751
11:00+17nne56434 0.0 10191913
14:00+19nne673623 0.0 10192471
17:00+19nne573548 0.0 10192464
20:00+16nne48549 0.0 1019238
24 june, thu
thu2423:00+13ne375484 0.0 1020166
02:00+8e1173100 0.0 102010
05:00+11nne2362100 0.0 102190
08:00+14nne35534 0.0 1021597
11:00+18nne463950 0.0 10212069
14:00+19n453623 0.0 10202284
17:00+20n453513 0.0 10202374
20:00+17nw11535 0.0 101911